{"data":{"norad_id":58070,"epoch":"2026-05-23T23:23:58.490592Z","epoch_age_seconds":174092,"freshness":"STALE","line1":"1 58070U 23158V   26143.97498253  .00007321  00000+0  27515-3 0  9997","line2":"2 58070  43.0019 321.8941 0001529 266.7027  93.3649 15.27595494145087","mean_motion":15.27595494,"eccentricity":0.0001529,"inclination_deg":43.0019,"raan_deg":321.8941,"arg_perigee_deg":266.7027,"mean_anomaly_deg":93.3649,"bstar":0.00027515,"rev_number":14508,"period_min":94.265792590771,"perigee_km":481.95363356145,"apogee_km":484.05177008226,"semimajor_km":6861.1397018219,"source":"CELESTRAK","updated_at":"2026-05-25T13:38:18.503068Z"}}